Regional Weather Roundup
Issued by NWS

Home | Current Version | Previous Version | Text Only | Print | Product List | Glossary On
Versions: 1 2 3 4 5 6 7 8 9 10 11 12 13 14 15 16 17 18 19 20 21 22 23 24 25 26 27 28 29 30 31 32 33 34 35 36 37 38 39 40 41 42 43 44 45 46 47 48 49 50
000
ASCA44 KEWX 101820
RWRMX

LATIN AMERICA AND CARIBBEAN REGIONAL WEATHER ROUNDUP
NATIONAL WEATHER SERVICE AUSTIN/SAN ANTONIO TX
1200 PM CST WED FEB 10 2016

NOTE: "FAIR" INDICATED FEW OR NO CLOUDS BELOW 12,000 FEET WITH NO
SIGNIFICANT WEATHER AND/OR OBSTRUCTIONS TO VISIBILITY.

BAJA CALIFORNIA

CITY           SKY/WX    TMP DP  RH WIND       PRES   REMARKS
LORETO         SUNNY     79  57  47 CALM      30.10S
LA PAZ         SUNNY     79  45  29 N14       30.12F
MEXICALI       MOSUNNY   75  27  16 W3        30.21S
S.J. DEL CABO  SUNNY     84  39  20 NW12      30.10S
TIJUANA        MOSUNNY   79  27  14 E7        30.19R

NORTHWESTERN MEXICO

CITY           SKY/WX    TMP DP  RH WIND       PRES   REMARKS
CULIACAN       SUNNY     82  61  47 N3        30.11S
DURANGO        SUNNY     59  28  31 S3        30.47F
GUAYMAS        SUNNY     77  50  38 CALM      30.08S
HERMOSILLO     SUNNY     86  21   9 NE7       30.17R
CD. JUAREZ     SUNNY     57  32  38 CALM      30.42F
LOS MOCHIS     SUNNY     81  50  34 NE5       30.11S
OBREGON        SUNNY     79  46  31 W3        30.09S

NORTHEASTERN MEXICO

CITY           SKY/WX    TMP DP  RH WIND       PRES   REMARKS
CHIHUAHUA      SUNNY     61  19  20 CALM      30.44F
MATAMOROS      SUNNY     75  45  33 S12       30.42S
MONCLOVA       SUNNY     68  23  18 CALM      30.36
MONTERREY      SUNNY     72  23  16 E9        30.35F
NUEVO LAREDO   SUNNY     72  32  23 CALM      30.37F
PIEDRAS NEGRAS SUNNY     66  37  34 E5        30.37F
REYNOSA        SUNNY     75  27  16 S3        30.37F
SALTILLO       SUNNY     63  41  45 CALM      30.50S
TORREON        SUNNY     66  32  28 CALM      30.42F
CD. VICTORIA   SUNNY     73  34  23 S14       30.40F

WESTERN MEXICO

CITY           SKY/WX    TMP DP  RH WIND       PRES   REMARKS
AGUASCALIENTES SUNNY     61  30  31 NE9       30.46F
COLIMA         PTSUNNY   82  50  32 N12       30.16F
DEL BAJIO      SUNNY     61  36  39 E7        30.48F
GUADALAJARA    MOSUNNY   66  34  30 SE6       30.37F
MANZANILLO     PTSUNNY   88  73  62 SW6       30.01F HX  96
MAZATLAN       SUNNY     86  63  45 NE5       30.08F
P. VALLARTA    MOSUNNY   81  63  54 SW6       30.06F
URUAPAN        PTSUNNY   70  48  46 E7        30.30F
ZACATECAS      SUNNY     61  34  36 E12       30.45F

CENTRAL MEXICO

CITY           SKY/WX    TMP DP  RH WIND       PRES   REMARKS
CUERNAVACA     CLOUDY    68  37  32 CALM      30.35
MEXICO CITY    PTSUNNY   52  36  54 NW2       30.49F
MORELIA        PTSUNNY   57  39  51 N3        30.43F
POZA RICA      CLOUDY    68  57  68 CALM      30.47
PUEBLA         CLOUDY    55  34  44 N10       30.48F
QUERETARO      PTSUNNY   57  37  47 SE12      30.50F
S. LUIS POTOSI   N/A    N/A N/A N/A MISG        N/A
TAMPICO        MOSUNNY   73  43  33 E7        30.42F
TOLUCA         PTSUNNY   59  32  36 NE7       30.48F

SOUTHERN MEXICO

CITY           SKY/WX    TMP DP  RH WIND       PRES   REMARKS
ACAPULCO       SUNNY     84  72  65 SW8       30.01F
B. DE HUATULCO SUNNY     90  72  55 CALM      30.05F HX  96
OAXACA         PTSUNNY   64  36  34 N13       30.41F
P. ESCONDIDO   SUNNY     82  61  47 W12       30.10F
VERACRUZ       CLOUDY    72  57  60 N7        30.41F
ZIHUATANEJO    PTSUNNY   86  73  66 SW6       30.04F HX  93

YUCATAN PENINSULA

CITY           SKY/WX    TMP DP  RH WIND       PRES   REMARKS
CAMPECHE       PTSUNNY   70  57  64 NW14      30.32F
CANCUN         PTSUNNY   72  54  53 NW16      30.28F
CHETUMAL       MOSUNNY   72  55  56 N14       30.32
CD. DEL CARMEN PTSUNNY   70  61  73 CALM      30.34F
COZUMEL        MOSUNNY   70  57  64 N9        30.29F
MERIDA         PTSUNNY   73  50  43 N9        30.33F
MINATITLAN     PTSUNNY   73  63  68 N12G29    30.35F
TAPACHULA      MOSUNNY   88  72  58 W6        30.02F HX  94
TUX. GUTIERREZ MOSUNNY   72  45  37 NW9       30.27F
VILLAHERMOSA   CLOUDY    70  63  78 N5        30.37F

CENTRAL AMERICA

CITY           SKY/WX    TMP DP  RH WIND       PRES   REMARKS
BELIZE CITY    MOSUNNY   75  57  53 NW10      30.28F
MANAGUA        PTCLDY    90  64  43 E21       29.94F HX  91

CARIBBEAN

CITY           SKY/WX    TMP DP  RH WIND       PRES   REMARKS
ARUBA          MOSUNNY   88  72  58 E23G35    29.92F HX  94
CURACAO        MOSUNNY   86  72  62 SE24G37   29.97F HX  92
KINGSTON       MOSUNNY   88  72  58 S10       30.03F HX  94
NASSAU         PTSUNNY   70  57  64 W10       30.19F
SAN JUAN       MOSUNNY   82  70  65 NE8       30.05F
SANTO DOMINGO  MOSUNNY   86  72  62 S9        30.03F HX  92
ST. CROIX      MOSUNNY   84  70  61 E14       30.07
ST. KITTS      MOSUNNY   84  72  65 E12       30.06F
ST. MAARTEN    MOSUNNY   82  68  61 E12       30.06F
ST. THOMAS     SUNNY     82  70  65 E16       30.06F

$$




USA.gov is the U.S. government's official web portal to all federal, state and local government web resources and services.